Date String (YYYY-MM-DD hh:mm:ss) UTC,Instrument flags,absolute air pressure of the measurement (hPa),sample flow rate (lpm),inlet stack bypass flow (lpm),air temperature of the measurement (°C),ambient temperature measured by the external sensor (°C),aerosol sample conditioner tube jacket temperature (°C),OPC LED temperature (°C),internal box temperature (°C),relative humidity of the measurement (%),span deviation,mass concentration of particles derived from Lorenz-Mie calculation of OPC scattering (μg/m³),mass concentration of particles derived from Lorenz-Mie calculation of OPC scattering (μg/m³),mass concentration of particles derived from Lorenz-Mie calculation of OPC scattering (μg/m³)
DateTimeUTC,F1_M11,P_M11,Q1_M11,Q2_M11,T1_M11,T2_M11,T3_M11,T4_M11,T5_M11,U1_M11,ZSPAN_M11,X0_M11,X2_M11,X1_M11
2023-11-15 00:00:00,SystemResetWarning,0830.4,5.02,000.00,027.9,023.0,000.0,036.1,028.9,6.1,0000.0,0005.31,0002.00,0001.40
2023-11-15 00:01:00,SystemResetWarning,0830.4,5.00,000.00,027.7,023.1,000.0,036.0,028.6,6.2,0000.0,0005.37,0002.03,0001.40
2023-11-15 00:02:00,SystemResetWarning,0830.4,5.00,000.00,027.5,023.5,000.0,036.0,028.3,6.4,0000.0,0005.13,0001.95,0001.37
2023-11-15 00:03:00,SystemResetWarning,0830.4,5.00,000.00,027.4,024.1,000.0,035.9,028.3,6.4,0000.0,0005.19,0001.88,0001.36
2023-11-15 00:04:00,SystemResetWarning,0830.4,4.99,000.00,027.4,024.5,000.0,035.8,028.5,6.3,0000.0,0006.13,0001.87,0001.36
2023-11-15 00:05:00,SystemResetWarning,0830.4,5.00,000.00,027.3,025.0,000.0,035.8,028.6,6.4,0000.0,0006.40,0001.86,0001.35
2023-11-15 00:06:00,SystemResetWarning,0830.5,5.00,000.00,027.3,025.3,000.0,035.8,028.7,6.6,0000.0,0006.47,0001.84,0001.35
2023-11-15 00:07:00,SystemResetWarning,0830.6,5.00,000.00,027.4,025.6,000.0,035.8,028.7,6.6,0000.0,0006.43,0001.82,0001.36
2023-11-15 00:08:00,SystemResetWarning,0830.6,5.01,000.00,027.4,025.8,000.0,035.7,028.8,6.6,0000.0,0006.66,0001.82,0001.38
2023-11-15 00:09:00,SystemResetWarning,0830.5,4.99,000.00,027.4,026.0,000.0,035.7,028.9,6.6,0000.0,0005.76,0001.79,0001.39
2023-11-15 00:10:00,SystemResetWarning,0830.4,4.99,000.00,027.4,026.2,000.0,035.7,029.0,6.4,0000.0,0005.03,0001.76,0001.39
2023-11-15 00:11:00,SystemResetWarning,0830.5,5.00,000.00,027.5,026.3,000.0,035.7,029.0,6.1,0000.0,0005.14,0001.76,0001.39
2023-11-15 00:12:00,SystemResetWarning,0830.5,5.00,000.00,027.5,026.4,000.0,035.7,029.1,6.1,0000.0,0007.25,0001.74,0001.41
2023-11-15 00:13:00,SystemResetWarning,0830.5,5.00,000.00,027.5,026.5,000.0,035.8,029.1,6.1,0000.0,0007.66,0001.77,0001.43
2023-11-15 00:14:00,SystemResetWarning,0830.6,5.00,000.00,027.6,026.6,000.0,035.8,029.1,5.9,0000.0,0007.63,0001.81,0001.44
2023-11-15 00:15:00,SystemResetWarning,0830.6,5.00,000.00,027.6,026.7,000.0,035.8,029.2,6.1,0000.0,0006.84,0001.82,0001.44
2023-11-15 00:16:00,SystemResetWarning,0830.6,5.00,000.00,027.6,026.8,000.0,035.8,029.2,6.2,0000.0,0006.69,0001.86,0001.46
2023-11-15 00:17:00,SystemResetWarning,0830.6,5.00,000.00,027.7,026.8,000.0,035.8,029.3,6.3,0000.0,0006.59,0001.88,0001.47
2023-11-15 00:18:00,SystemResetWarning,0830.6,5.00,000.00,027.7,026.9,000.0,035.9,029.3,6.4,0000.0,0006.60,0001.90,0001.46
2023-11-15 00:19:00,SystemResetWarning,0830.7,5.00,000.00,027.7,026.9,000.0,035.9,029.3,6.4,0000.0,0006.69,0001.92,0001.46
2023-11-15 00:20:00,SystemResetWarning,0830.7,5.00,000.00,027.8,026.9,000.0,035.9,029.4,6.0,0000.0,0006.65,0001.91,0001.45
2023-11-15 00:21:00,SystemResetWarning,0830.7,5.00,000.00,027.8,027.0,000.0,035.9,029.4,5.9,0000.0,0007.14,0001.89,0001.46
2023-11-15 00:22:00,SystemResetWarning,0830.7,5.00,000.00,027.8,027.0,000.0,036.0,029.4,5.9,0000.0,0007.36,0001.91,0001.45
2023-11-15 00:23:00,SystemResetWarning,0830.7,5.01,000.00,027.8,027.0,000.0,036.0,029.4,5.9,0000.0,0005.25,0001.90,0001.44
2023-11-15 00:24:00,SystemResetWarning,0830.7,5.00,000.00,027.9,027.1,000.0,036.0,029.4,6.0,0000.0,0004.58,0001.89,0001.43
2023-11-15 00:25:00,SystemResetWarning,0830.7,5.01,000.00,027.9,027.1,000.0,036.0,029.4,6.1,0000.0,0005.30,0001.89,0001.43
2023-11-15 00:26:00,SystemResetWarning,0830.7,5.00,000.00,027.9,027.1,000.0,036.0,029.5,6.1,0000.0,0005.93,0001.89,0001.44
2023-11-15 00:27:00,SystemResetWarning,0830.7,5.00,000.00,027.9,027.1,000.0,036.1,029.5,6.2,0000.0,0006.70,0001.85,0001.42
2023-11-15 00:28:00,SystemResetWarning,0830.7,5.00,000.00,028.0,027.1,000.0,036.1,029.5,6.1,0000.0,0006.75,0001.84,0001.41
2023-11-15 00:29:00,SystemResetWarning,0830.7,5.00,000.00,028.0,027.1,000.0,036.1,029.5,6.2,0000.0,0006.59,0001.84,0001.41
2023-11-15 00:30:00,SystemResetWarning,0830.7,5.00,000.00,028.0,027.1,000.0,036.1,029.5,6.2,0000.0,0006.03,0001.83,0001.40
2023-11-15 00:31:00,SystemResetWarning,0830.7,5.00,000.00,028.0,027.1,000.0,036.2,029.6,6.2,0000.0,0006.01,0001.82,0001.40
2023-11-15 00:32:00,SystemResetWarning,0830.7,5.00,000.00,028.0,027.2,000.0,036.2,029.6,6.1,0000.0,0005.59,0001.81,0001.38
2023-11-15 00:33:00,SystemResetWarning,0830.7,5.00,000.00,028.1,026.9,000.0,036.2,029.6,6.1,0000.0,0005.05,0001.79,0001.38
2023-11-15 00:34:00,SystemResetWarning,0830.7,5.00,000.00,028.0,024.9,000.0,036.2,029.4,6.0,0000.0,0005.11,0001.79,0001.40
2023-11-15 00:35:00,SystemResetWarning,0830.7,5.01,000.00,027.9,023.8,000.0,036.1,029.1,6.0,0000.0,0005.10,0001.78,0001.39
2023-11-15 00:36:00,SystemResetWarning,0830.7,5.00,000.00,027.7,023.9,000.0,036.1,028.7,5.9,0000.0,0004.43,0001.76,0001.39
2023-11-15 00:37:00,SystemResetWarning,0830.7,5.00,000.00,027.6,024.3,000.0,036.0,028.6,5.9,0000.0,0003.73,0001.77,0001.38
2023-11-15 00:38:00,SystemResetWarning,0830.7,5.01,000.00,027.5,024.7,000.0,036.0,028.6,5.9,0000.0,0002.88,0001.77,0001.39
2023-11-15 00:39:00,SystemResetWarning,0830.7,5.00,000.00,027.5,025.1,000.0,036.0,028.7,5.9,0000.0,0002.76,0001.76,0001.40
2023-11-15 00:40:00,SystemResetWarning,0830.7,5.00,000.00,027.5,025.4,000.0,035.9,028.8,5.9,0000.0,0002.67,0001.74,0001.41
2023-11-15 00:41:00,SystemResetWarning,0830.7,5.00,000.00,027.5,025.7,000.0,035.9,028.8,5.9,0000.0,0002.54,0001.71,0001.41
2023-11-15 00:42:00,SystemResetWarning,0830.8,5.01,000.00,027.5,025.9,000.0,035.9,028.9,5.9,0000.0,0002.45,0001.69,0001.41
2023-11-15 00:43:00,SystemResetWarning,0830.8,5.00,000.00,027.5,026.0,000.0,035.9,028.9,5.8,0000.0,0002.43,0001.69,0001.42
2023-11-15 00:44:00,SystemResetWarning,0830.8,5.00,000.00,027.5,026.2,000.0,035.9,028.9,5.7,0000.0,0002.27,0001.64,0001.41
2023-11-15 00:45:00,SystemResetWarning,0830.8,5.00,000.00,027.5,026.3,000.0,035.9,029.0,5.8,0000.0,0002.11,0001.60,0001.40
2023-11-15 00:46:00,SystemResetWarning,0830.8,4.99,000.00,027.5,026.4,000.0,035.9,029.0,5.9,0000.0,0002.16,0001.60,0001.39
2023-11-15 00:47:00,SystemResetWarning,0830.8,5.00,000.00,027.6,026.5,000.0,035.9,029.0,6.0,0000.0,0002.28,0001.61,0001.38
2023-11-15 00:48:00,SystemResetWarning,0830.8,4.99,000.00,027.6,026.5,000.0,035.9,029.1,5.9,0000.0,0002.15,0001.58,0001.37
2023-11-15 00:49:00,SystemResetWarning,0830.8,5.00,000.00,027.6,026.6,000.0,035.9,029.1,5.9,0000.0,0002.41,0001.59,0001.37
2023-11-15 00:50:00,SystemResetWarning,0830.8,5.00,000.00,027.6,026.6,000.0,035.9,029.1,5.9,0000.0,0002.51,0001.61,0001.36
2023-11-15 00:51:00,SystemResetWarning,0830.8,5.00,000.00,027.6,026.7,000.0,035.9,029.2,6.0,0000.0,0002.55,0001.61,0001.34
2023-11-15 00:52:00,SystemResetWarning,0830.8,5.00,000.00,027.7,026.7,000.0,035.9,029.2,5.9,0000.0,0002.57,0001.62,0001.34
2023-11-15 00:53:00,SystemResetWarning,0830.8,4.99,000.00,027.7,026.7,000.0,035.9,029.2,5.8,0000.0,0002.61,0001.63,0001.34
2023-11-15 00:54:00,SystemResetWarning,0830.8,5.00,000.00,027.7,026.7,000.0,036.0,029.2,5.8,0000.0,0002.62,0001.62,0001.33
2023-11-15 00:55:00,SystemResetWarning,0830.8,5.00,000.00,027.7,026.8,000.0,036.0,029.2,5.7,0000.0,0002.69,0001.66,0001.34
2023-11-15 00:56:00,SystemResetWarning,0830.8,5.01,000.00,027.7,026.8,000.0,036.0,029.2,5.7,0000.0,0003.79,0001.70,0001.35
2023-11-15 00:57:00,SystemResetWarning,0830.8,5.01,000.00,027.7,026.8,000.0,036.0,029.2,5.8,0000.0,0004.07,0001.74,0001.36
2023-11-15 00:58:00,SystemResetWarning,0830.8,5.00,000.00,027.8,026.8,000.0,036.0,029.3,5.9,0000.0,0003.99,0001.73,0001.36
2023-11-15 00:59:00,SystemResetWarning,0830.8,4.99,000.00,027.8,026.8,000.0,036.0,029.3,5.9,0000.0,0004.08,0001.74,0001.37
